[[{"header":{"parameterUnit":"m.s-1","parameterCategory":1,"la1":30.2991,"la2":30.254,"lo1":-89.0895,"lo2":-89.0444,"dy":0.0017,"dx":0.0017,"nx":28,"ny":28,"refTime":"2026-03-04T03:00:00:Z","depth":0,"parameterNumber":2,"parameterNumberName":"U-component_of_WINDS"},"data":[0,0,0,0,0,0,0,0,0,0,0,0,0,0,0,0,0,0,0,0,0,0,0,0,0,0,0,0,0,0,0,0,0,0,0,0,0,0,0,0,0,0,0,0,0,0,0,0,0,0,0,0,0,0,0,0,0,0,-4.5618,-4.5619,0,-4.5709,-4.571,-4.5711,-4.567,-4.5668,-4.5665,-4.5663,-4.5757,-4.5761,-4.5766,0,0,0,0,0,0,0,0,0,0,0,0,0,-4.5412,-4.5416,-4.5618,-4.5619,-4.562,-4.5708,-4.571,-4.5711,-4.567,-4.5667,-4.5665,-4.5662,-4.5755,-4.5761,-4.5766,0,0,0,0,0,0,0,0,0,0,0,0,0,-4.5502,-4.5417,-4.5618,-4.561,-4.5611,-4.5708,-4.571,-4.5711,-4.5671,-4.5667,-4.5664,-4.5661,-4.5753,-4.576,-4.5767,-4.5877,0,0,-4.5788,-4.5791,0,0,0,0,0,0,0,0,-4.5497,-4.5509,-4.561,-4.5611,-4.5612,-4.5674,-4.5671,-4.5767,-4.5672,-4.5648,-4.5663,-4.5659,-4.5732,-4.574,-4.5765,-4.5881,-4.5885,-4.5788,-4.5793,-4.5796,-4.5797,0,0,0,0,0,0,0,-4.549,-4.5505,-4.5654,-4.5612,-4.5613,-4.5603,-4.5612,-4.5689,-4.5708,-4.565,-4.5647,-4.5658,-4.5732,-4.5758,-4.5767,-4.5886,-4.5788,-4.5794,-4.5799,-4.5801,-4.6099,-4.6103,0,0,0,0,0,0,-4.5484,-4.55,-4.5651,-4.5656,-4.5545,-4.561,-4.562,-4.5658,-4.5707,-4.5711,-4.5661,-4.5656,-4.5748,-4.5759,-4.577,-4.5902,-4.5795,-4.5802,-4.5806,-4.6095,-4.61,-4.6104,0,0,0,0,0,0,-4.548,-4.5498,-4.5647,-4.5578,-4.5596,-4.5617,-4.566,-4.5661,-4.5688,-4.5715,-4.5719,-4.5685,-4.5746,-4.576,-4.5851,-4.5904,-4.5805,-4.5811,-4.6091,-4.6097,-4.6102,-4.6166,0,0,0,0,0,0,-4.5474,-4.5497,-4.5538,-4.5579,-4.56,-4.5726,-4.5663,-4.5665,-4.57,-4.5694,-4.5738,-4.5743,-4.5744,-4.5841,-4.5858,-4.5912,-4.5817,-4.6086,-4.6093,-4.61,-4.6159,-4.6173,-4.6185,0,0,0,0,0,-4.5467,-4.5552,-4.554,-4.5558,-4.5652,-4.5729,-4.5741,-4.5741,-4.5704,-4.5746,-4.5764,-4.5741,-4.5897,-4.585,-4.5869,-4.5926,-4.6082,-4.6091,-4.61,-4.6153,-4.6171,-4.6185,0,0,0,0,0,0,-4.5516,-4.5557,-4.5544,-4.5645,-4.5684,-4.5722,-4.5774,-4.5759,-4.5809,-4.5802,-4.58,-4.5811,-4.5905,-4.5925,-4.5873,-4.6036,-4.5984,-4.5997,-4.6019,-4.6035,-4.6048,-4.604,-4.5822,0,0,0,0,0,-4.5539,-4.5598,-4.5631,-4.5717,-4.5737,-4.5753,-4.5787,-4.5784,-4.5824,-4.584,-4.5864,-4.5905,-4.5962,-4.6,-4.6055,-4.6164,-4.6173,-4.6212,-4.6226,-4.6236,-4.6246,-4.6305,-4.6323,-4.6132,-4.6132,-4.6132,0,0,-4.5586,-4.5616,-4.5653,-4.5728,-4.5757,-4.5819,-4.5767,-4.5834,-4.5879,-4.585,-4.5936,-4.5957,-4.6002,-4.6101,-4.6147,-4.6121,-4.6302,-4.6247,-4.6255,-4.6259,-4.6316,-4.6334,-4.635,-4.6138,-4.6137,-4.6136,0,0,-4.5703,-4.5732,-4.5807,-4.5838,-4.5884,-4.5894,-4.5913,-4.5954,-4.5966,-4.6053,-4.6033,-4.6088,-4.6188,-4.6221,-4.625,-4.6384,-4.6364,-4.6402,-4.6469,-4.6527,-4.6542,-4.6555,-4.6602,-4.6619,-4.6413,-4.6413,-4.6413,0,-4.5755,-4.5847,-4.5847,-4.5916,-4.595,-4.5928,-4.6004,-4.6035,-4.6096,-4.612,-4.6092,-4.6217,-4.6246,-4.6353,-4.6386,-4.6411,-4.6432,-4.6395,-4.654,-4.6553,-4.6566,-4.661,-4.6628,-4.6417,-4.6417,-4.6416,-4.6416,0,-4.5909,-4.5973,-4.6028,-4.6088,-4.6129,-4.6201,-4.6214,-4.6255,-4.625,-4.6264,-4.6354,-4.6388,-4.645,-4.6476,-4.6471,-4.6584,-4.6566,-4.6539,-4.6486,-4.6588,-4.663,-4.6647,-4.6423,-4.6422,-4.642,-4.6419,0,0,-4.6055,-4.6117,-4.6137,-4.6165,-4.6216,-4.6265,-4.6338,-4.6399,-4.6434,-4.6479,-4.6539,-4.6626,-4.6601,-4.6635,-4.6635,-4.6686,-4.6789,-4.6653,-4.6654,-4.6676,-4.6915,-4.6933,-4.6953,-4.6778,-4.6781,-4.6784,-4.691,0,-4.6174,-4.63,-4.6305,-4.642,-4.6479,-4.6461,-4.6524,-4.6563,-4.6579,-4.6632,-4.6651,-4.6711,-4.6675,-4.6696,-4.6746,-4.6766,-4.6837,-4.6757,-4.6834,-4.6837,-4.682,-4.6975,-4.6994,-4.7111,-4.6927,-4.693,-4.6932,0,-4.6329,-4.6379,-4.65,-4.6544,-4.6569,-4.6626,-4.6682,-4.6734,-4.6778,-4.6787,-4.6826,-4.6819,-4.6894,-4.6842,-4.6945,-4.6891,-4.6924,-4.6939,-4.6944,-4.6948,-4.6888,-4.6982,-4.7148,-4.7165,-4.6958,-4.6955,-4.6954,0,-4.6422,-4.652,-4.6605,-4.663,-4.6683,-4.6724,-4.6748,-4.6789,-4.6826,-4.6876,-4.69,-4.6959,-4.6991,-4.7037,-4.7047,-4.7007,-4.7151,-4.7098,-4.7159,-4.7159,-4.7187,-4.7184,-4.7359,-4.7212,-4.7212,-4.7212,-4.7211,0,-4.6553,-4.6627,-4.6647,-4.67,-4.6783,-4.6789,-4.6872,-4.6894,-4.6931,-4.6987,-4.6977,-4.703,-4.7041,-4.7097,-4.7106,-4.719,-4.7205,-4.7214,-4.7215,-4.7213,-4.7212,-4.7232,-4.7223,-4.7216,-4.7215,-4.7214,-4.7214,0,-4.6669,-4.6685,-4.6777,-4.6821,-4.6834,-4.6894,-4.6932,-4.6983,-4.6999,-4.7071,-4.7088,-4.7114,-4.718,-4.7195,-4.7273,-4.7279,-4.7379,-4.7373,-4.7363,-4.7362,-4.7421,-4.7415,-4.7612,-4.7638,-4.7477,-4.7479,-4.748,0,-4.6749,-4.6806,-4.6858,-4.6895,-4.6921,-4.6982,-4.702,-4.7029,-4.7069,-4.7125,-4.7169,-4.7234,-4.7286,-4.7393,-4.7419,-4.7479,-4.7473,-4.7539,-4.7482,-4.7479,-4.7472,-4.7467,-4.7473,-4.7548,-4.755,-4.7551,-4.7553,0,-4.6891,-4.6897,-4.6952,-4.7011,-4.7057,-4.7104,-4.7148,-4.718,-4.7195,-4.7241,-4.7309,-4.7349,-4.743,-4.7495,-4.7556,-4.7582,-4.757,-4.7571,-4.7588,-4.7585,-4.7577,-4.758,-4.739,-4.7565,-4.7564,-4.7563,-4.7562,-4.7562,-4.699,-4.7041,-4.7085,-4.7147,-4.7182,-4.7225,-4.7274,-4.7298,-4.7354,-4.742,-4.7424,-4.7497,-4.7542,-4.7623,-4.7654,-4.7712,-4.7691,-4.7716,-4.7722,-4.7727,-4.7732,-4.757,-4.7723,-4.7723,-4.7723,-4.7722,-4.7722,0,-4.713,-4.7158,-4.7216,-4.7279,-4.7328,-4.7315,-4.7364,-4.7406,-4.7471,-4.7514,-4.7566,-4.7645,-4.7708,-4.7741,-4.7804,-4.7844,-4.784,-4.786,-4.7856,-4.7862,-4.7747,-4.7725,-4.7862,-4.7862,-4.7862,-4.7862,-4.7862,-4.7862,-4.7207,-4.7291,-4.7304,-4.7406,-4.7434,-4.7506,-4.7535,-4.7575,-4.761,-4.7697,-4.775,-4.7771,-4.7811,-4.7877,-4.7935,-4.7943,-4.7966,-4.7988,-4.7993,-4.7884,-4.787,-4.7856,-4.7836,-4.7994,-4.7994,-4.8103,-4.8104,-4.8105]},{"header":{"parameterUnit":"m.s-1","parameterCategory":1,"la1":30.2991,"la2":30.254,"lo1":-89.0895,"lo2":-89.0444,"dy":0.0017,"dx":0.0017,"nx":28,"ny":28,"refTime":"2026-03-04T03:00:00:Z","depth":0,"parameterNumber":3,"parameterNumberName":"V-component_of_WINDS"},"data":[0,0,0,0,0,0,0,0,0,0,0,0,0,0,0,0,0,0,0,0,0,0,0,0,0,0,0,0,0,0,0,0,0,0,0,0,0,0,0,0,0,0,0,0,0,0,0,0,0,0,0,0,0,0,0,0,0,0,1.4852,1.4853,0,1.4911,1.4911,1.4912,1.4946,1.4946,1.4947,1.4947,1.5005,1.5007,1.5008,0,0,0,0,0,0,0,0,0,0,0,0,0,1.4771,1.4772,1.4852,1.4853,1.4854,1.4911,1.4911,1.4912,1.4946,1.4946,1.4947,1.4947,1.5005,1.5007,1.5008,0,0,0,0,0,0,0,0,0,0,0,0,0,1.4815,1.4773,1.4852,1.4878,1.488,1.491,1.4911,1.4912,1.4946,1.4946,1.4947,1.4947,1.5004,1.5007,1.5009,1.5017,0,0,1.5015,1.5016,0,0,0,0,0,0,0,0,1.4813,1.4818,1.4873,1.4876,1.4879,1.4922,1.4904,1.4948,1.4946,1.4921,1.4947,1.4947,1.4977,1.4982,1.4992,1.502,1.5023,1.5015,1.5017,1.5018,1.5018,0,0,0,0,0,0,0,1.481,1.4816,1.4875,1.4874,1.4878,1.4886,1.4893,1.4913,1.4947,1.4923,1.4926,1.4933,1.4979,1.499,1.4994,1.5024,1.5015,1.5017,1.5019,1.5019,1.5065,1.5064,0,0,0,0,0,0,1.4803,1.4813,1.4873,1.4877,1.4846,1.4888,1.4895,1.4908,1.4947,1.4953,1.4932,1.4934,1.4986,1.4991,1.4996,1.501,1.5018,1.502,1.5021,1.5065,1.5065,1.5064,0,0,0,0,0,0,1.4801,1.4808,1.4871,1.4846,1.4855,1.4889,1.4903,1.4909,1.492,1.4954,1.496,1.4937,1.4987,1.4993,1.5013,1.5013,1.5021,1.5023,1.5065,1.5065,1.5064,1.5038,0,0,0,0,0,0,1.4798,1.4807,1.481,1.4846,1.4856,1.4886,1.4903,1.491,1.4923,1.4926,1.496,1.4966,1.4987,1.5009,1.5015,1.5016,1.5024,1.5065,1.5065,1.5065,1.5039,1.5037,1.5036,0,0,0,0,0,1.4795,1.4799,1.481,1.4817,1.4861,1.4886,1.4892,1.4917,1.4923,1.4927,1.495,1.4965,1.5012,1.5011,1.5017,1.5019,1.5065,1.5065,1.5065,1.504,1.5038,1.5036,0,0,0,0,0,0,1.4762,1.4805,1.4817,1.4833,1.4856,1.4892,1.4897,1.4913,1.4934,1.4936,1.4965,1.4973,1.499,1.5007,1.5005,1.5031,1.504,1.5041,1.502,1.5018,1.5016,1.5011,1.5026,0,0,0,0,0,1.4756,1.4774,1.481,1.4821,1.4832,1.4863,1.4875,1.4892,1.4917,1.4927,1.495,1.4974,1.4994,1.5007,1.5027,1.5042,1.5051,1.5047,1.5045,1.5043,1.5044,1.5055,1.5054,1.5064,1.5064,1.5064,0,0,1.4745,1.4771,1.478,1.4815,1.4835,1.4852,1.4871,1.4888,1.4901,1.4929,1.495,1.4968,1.4996,1.5014,1.5023,1.5028,1.5044,1.5043,1.5042,1.5043,1.5055,1.5054,1.5053,1.5064,1.5064,1.5064,0,0,1.4734,1.4755,1.4767,1.4787,1.4817,1.4838,1.4841,1.4876,1.489,1.4911,1.4933,1.4949,1.4983,1.5003,1.5018,1.5017,1.5032,1.5023,1.5013,1.5024,1.5023,1.5022,1.5023,1.5023,1.5023,1.5023,1.5023,0,1.4716,1.4743,1.4771,1.4788,1.4803,1.4831,1.4844,1.4862,1.4897,1.4907,1.4913,1.4958,1.4979,1.5003,1.5003,1.5013,1.5018,1.5019,1.5021,1.5021,1.5021,1.5022,1.5022,1.5022,1.5022,1.5022,1.5022,0,1.4721,1.474,1.4746,1.4781,1.4797,1.4812,1.4842,1.4855,1.4872,1.4892,1.4915,1.4941,1.4968,1.4975,1.4991,1.5002,1.5005,1.5015,1.5025,1.5018,1.502,1.502,1.502,1.5021,1.5021,1.5021,0,0,1.4688,1.474,1.4742,1.4759,1.4796,1.4811,1.4828,1.4856,1.4867,1.4891,1.4906,1.4936,1.4947,1.4963,1.4982,1.4991,1.4991,1.5001,1.5002,1.4999,1.5006,1.4998,1.4998,1.5001,1.5001,1.5002,1.5004,0,1.4683,1.4715,1.4741,1.4763,1.4782,1.481,1.4825,1.4849,1.4869,1.4888,1.4911,1.4932,1.4944,1.4954,1.4965,1.4988,1.4993,1.4989,1.5016,1.5017,1.5009,1.4999,1.499,1.4991,1.5005,1.5005,1.5005,0,1.4681,1.4705,1.4729,1.4767,1.4776,1.4788,1.4817,1.4835,1.4864,1.4878,1.4898,1.4918,1.4938,1.4946,1.4974,1.4971,1.4984,1.4998,1.4999,1.5002,1.5011,1.5003,1.4992,1.4992,1.5006,1.5006,1.5006,0,1.4656,1.4695,1.4715,1.4729,1.4772,1.4781,1.48,1.4829,1.4845,1.487,1.4881,1.4907,1.4922,1.4942,1.497,1.4973,1.4996,1.5006,1.5009,1.5008,1.5012,1.5012,1.5004,1.502,1.502,1.502,1.502,0,1.4648,1.4662,1.4705,1.4717,1.4735,1.4765,1.4782,1.4802,1.4829,1.4846,1.4871,1.4887,1.4922,1.4942,1.4963,1.4985,1.4991,1.5004,1.5009,1.5002,1.5,1.5011,1.5011,1.502,1.502,1.502,1.502,0,1.4623,1.4652,1.4676,1.4716,1.4727,1.4738,1.4772,1.4786,1.4808,1.483,1.4837,1.4873,1.4898,1.4927,1.4962,1.4976,1.4996,1.5004,1.4987,1.499,1.4992,1.4992,1.4991,1.4993,1.5007,1.5006,1.5006,0,1.4615,1.4627,1.4669,1.4683,1.4701,1.4723,1.474,1.4771,1.4788,1.4823,1.4833,1.486,1.4884,1.4924,1.4953,1.498,1.4989,1.4987,1.4993,1.4986,1.499,1.4989,1.4991,1.4985,1.4985,1.4984,1.4984,0,1.46,1.4614,1.4638,1.4667,1.4687,1.4711,1.4736,1.4746,1.4783,1.48,1.4827,1.4846,1.4882,1.491,1.4941,1.4961,1.4979,1.4982,1.4985,1.4977,1.4967,1.4973,1.4983,1.4982,1.4982,1.4982,1.4982,1.4982,1.4584,1.4597,1.4629,1.4655,1.4677,1.4701,1.4716,1.4742,1.4765,1.4798,1.4815,1.4842,1.4873,1.4917,1.4936,1.4958,1.4964,1.4967,1.4968,1.4968,1.4967,1.4963,1.4964,1.4964,1.4964,1.4964,1.4964,0,1.4571,1.4593,1.4617,1.4652,1.4673,1.4689,1.4719,1.4735,1.4759,1.4786,1.481,1.4842,1.487,1.4901,1.4931,1.4943,1.4952,1.495,1.4949,1.4954,1.4959,1.4955,1.4942,1.4942,1.4942,1.4942,1.4942,1.4942,1.4566,1.4589,1.4608,1.4643,1.4665,1.4693,1.4708,1.4731,1.4753,1.4788,1.4811,1.4832,1.4862,1.4895,1.4921,1.493,1.494,1.4935,1.4946,1.4951,1.4953,1.4955,1.4951,1.4937,1.4937,1.4939,1.4939,1.4939]}]]